Wadena, MN

9:49 AM CDT on October 20, 2017 (GMT -0500)
Wadena Municipal

Weather History for KADC - April, 2013

Change the Weather History Date:

Monday, April 22, 2013

  Actual Average Record
Temperature  
Mean Temperature 28 °F -  
Max Temperature 33 °F 57 °F 96 °F (1980)
Min Temperature 23 °F 31 °F 15 °F (1936)
Degree Days  
Heating Degree Days 37    
Moisture  
Dew Point 22 °F    
Average Humidity 77    
Maximum Humidity 93    
Minimum Humidity 56    
Precipitation  
Precipitation 0.00 in - - ()
Sea Level Pressure  
Sea Level Pressure 30.22 in    
Wind  
Wind Speed 8 mph (NNW)    
Max Wind Speed 14 mph    
Max Gust Speed 17 mph    
Visibility 10 miles    
Events      
Averages and records for this station are not official NWS values.
T = Trace of Precipitation, MM = Missing Value Source: NWS Daily Summary

Daily Weather History Graph

Daily Weather History Graph

Search for Another Location

Airport or City:

Trip Planner

Search our weather history database for the weather conditions in past years. The results will help you decide how hot, cold, wet, or windy it might be!

Date:

Astronomy

Apr. 22, 2013 Rise Set
Actual Time 6:21 AM CDT 8:18 PM CDT
Civil Twilight 5:48 AM CDT 8:50 PM CDT
Nautical Twilight 5:08 AM CDT 9:30 PM CDT
Astronomical Twilight 4:25 AM CDT 10:14 PM CDT
Moon 4:58 PM CDT (4/22) 4:28 AM CDT (4/22)
Length of Visible Light 15h 02m
Length of Day
13h 57m
Waxing Gibbous, 88% of the Moon is Illuminated
Apr 22
Waxing Gibbous
Apr 25
Full
May 2
Last Quarter
May 9
New
May 17
First Quarter

Hourly Weather History & Observations

Time (CDT) Temp. Windchill Dew Point Humidity Pressure Visibility Wind Dir Wind Speed Gust Speed Precip Events Conditions
12:15 AM 30.2 °F 20.8 °F 26.6 °F 86% 30.12 in 10.0 mi NW 11.5 mph 17.3 mph N/A   Overcast
12:34 AM 30.2 °F 20.2 °F 24.8 °F 80% 30.13 in 10.0 mi NW 12.7 mph - N/A   Overcast
12:53 AM 30.2 °F 21.3 °F 24.8 °F 80% 30.14 in 10.0 mi NW 10.4 mph - N/A   Overcast
1:15 AM 30.2 °F 21.9 °F 24.8 °F 80% - 10.0 mi NW 9.2 mph - N/A   Overcast
1:35 AM 30.2 °F 23.4 °F 24.8 °F 80% - 10.0 mi NW 6.9 mph - N/A   Mostly Cloudy
1:53 AM 28.4 °F 22.2 °F 24.8 °F 86% 30.15 in 10.0 mi NW 5.8 mph - N/A   Scattered Clouds
2:15 AM 28.4 °F 21.2 °F 24.8 °F 86% 30.16 in 10.0 mi WNW 6.9 mph - N/A   Clear
2:34 AM 26.6 °F 20.0 °F 24.8 °F 93% 30.15 in 10.0 mi NW 5.8 mph - N/A   Clear
2:53 AM 26.6 °F 20.0 °F 24.8 °F 93% 30.17 in 10.0 mi WNW 5.8 mph - N/A   Clear
3:14 AM 26.6 °F 20.0 °F 24.8 °F 93% 30.16 in 10.0 mi NW 5.8 mph - N/A   Clear
3:35 AM 26.6 °F 21.2 °F 23.0 °F 86% 30.16 in 10.0 mi NW 4.6 mph - N/A   Clear
3:53 AM 26.6 °F 21.2 °F 23.0 °F 86% 30.18 in 10.0 mi West 4.6 mph - N/A   Clear
4:15 AM 24.8 °F 17.9 °F 21.2 °F 86% 30.17 in 10.0 mi NW 5.8 mph - N/A   Clear
4:35 AM 24.8 °F 20.5 °F 21.2 °F 86% 30.18 in 10.0 mi WNW 3.5 mph - N/A   Clear
4:53 AM 24.8 °F - 23.0 °F 93% 30.19 in 10.0 mi Calm Calm - N/A   Clear
5:15 AM 24.8 °F 20.5 °F 21.2 °F 86% 30.20 in 10.0 mi WNW 3.5 mph - N/A   Clear
5:34 AM 24.8 °F 20.5 °F 21.2 °F 86% 30.20 in 10.0 mi West 3.5 mph - N/A   Clear
5:52 AM 23.0 °F 17.0 °F 21.2 °F 93% 30.20 in 10.0 mi NW 4.6 mph - N/A   Clear
6:14 AM 24.8 °F 17.9 °F 21.2 °F 86% 30.21 in 10.0 mi NW 5.8 mph - N/A   Mostly Cloudy
6:35 AM 24.8 °F 19.1 °F 21.2 °F 86% 30.21 in 10.0 mi North 4.6 mph - N/A   Mostly Cloudy
7:15 AM 24.8 °F - 21.2 °F 86% 30.22 in 10.0 mi Calm Calm - N/A   Clear
7:35 AM 24.8 °F - 23.0 °F 93% 30.22 in 10.0 mi Calm Calm - N/A   Scattered Clouds
7:53 AM 24.8 °F 20.5 °F 23.0 °F 93% 30.23 in 10.0 mi NNW 3.5 mph - N/A   Scattered Clouds
8:15 AM 26.6 °F 20.0 °F 24.8 °F 93% 30.22 in 10.0 mi NNW 5.8 mph - N/A   Scattered Clouds
8:34 AM 26.6 °F 18.2 °F 24.8 °F 93% 30.23 in 10.0 mi North 8.1 mph - N/A   Overcast
8:52 AM 28.4 °F 19.7 °F 23.0 °F 80% 30.25 in 10.0 mi North 9.2 mph - N/A   Overcast
9:14 AM 28.4 °F 20.4 °F 23.0 °F 80% 30.23 in 10.0 mi North 8.1 mph - N/A   Mostly Cloudy
9:35 AM 28.4 °F 20.4 °F 23.0 °F 80% 30.24 in 10.0 mi North 8.1 mph - N/A   Scattered Clouds
9:53 AM 28.4 °F 19.7 °F 21.2 °F 74% 30.24 in 10.0 mi North 9.2 mph - N/A   Scattered Clouds
10:15 AM 28.4 °F 20.4 °F 21.2 °F 74% 30.25 in 10.0 mi North 8.1 mph - N/A   Mostly Cloudy
10:35 AM 28.4 °F 21.2 °F 21.2 °F 74% 30.26 in 10.0 mi North 6.9 mph - N/A   Mostly Cloudy
10:52 AM 28.4 °F 21.2 °F 21.2 °F 74% 30.27 in 10.0 mi North 6.9 mph - N/A   Mostly Cloudy
11:15 AM 28.4 °F 20.4 °F 21.2 °F 74% 30.27 in 10.0 mi North 8.1 mph - N/A   Overcast
11:35 AM 28.4 °F 20.4 °F 21.2 °F 74% 30.27 in 10.0 mi North 8.1 mph - N/A   Mostly Cloudy
11:52 AM 28.4 °F 22.2 °F 21.2 °F 74% 30.27 in 10.0 mi North 5.8 mph - N/A   Mostly Cloudy
12:15 PM 30.2 °F 21.9 °F 21.2 °F 69% 30.26 in 10.0 mi NNE 9.2 mph - N/A   Overcast
12:35 PM 30.2 °F 21.9 °F 21.2 °F 69% 30.25 in 10.0 mi North 9.2 mph - N/A   Mostly Cloudy
12:53 PM 30.2 °F 21.9 °F 21.2 °F 69% 30.24 in 10.0 mi North 9.2 mph - N/A   Scattered Clouds
1:15 PM 30.2 °F 21.9 °F 21.2 °F 69% 30.24 in 10.0 mi North 9.2 mph - N/A   Scattered Clouds
1:34 PM 30.2 °F 20.8 °F 21.2 °F 69% 30.24 in 10.0 mi North 11.5 mph 16.1 mph N/A   Scattered Clouds
1:53 PM 30.2 °F 21.3 °F 21.2 °F 69% 30.23 in 10.0 mi North 10.4 mph - N/A   Scattered Clouds
2:15 PM 30.2 °F 22.6 °F 21.2 °F 69% 30.23 in 10.0 mi North 8.1 mph - N/A   Scattered Clouds
2:35 PM 32.0 °F 24.2 °F 21.2 °F 64% 30.23 in 10.0 mi North 9.2 mph - N/A   Scattered Clouds
2:52 PM 32.0 °F 23.0 °F 21.2 °F 64% 30.23 in 10.0 mi North 11.5 mph - N/A   Mostly Cloudy
3:14 PM 32.0 °F 23.6 °F 21.2 °F 64% 30.22 in 10.0 mi North 10.4 mph - N/A   Scattered Clouds
3:34 PM 32.0 °F 23.0 °F 21.2 °F 64% 30.22 in 10.0 mi NNW 11.5 mph - N/A   Scattered Clouds
3:53 PM 32.0 °F 23.0 °F 21.2 °F 64% 30.22 in 10.0 mi North 11.5 mph - N/A   Scattered Clouds
4:15 PM 32.0 °F 23.0 °F 21.2 °F 64% 30.22 in 10.0 mi North 11.5 mph - N/A   Scattered Clouds
4:35 PM 32.0 °F 23.0 °F 19.4 °F 60% 30.22 in 10.0 mi North 11.5 mph - N/A   Scattered Clouds
4:53 PM 33.8 °F 25.8 °F 19.4 °F 56% 30.22 in 10.0 mi North 10.4 mph - N/A   Scattered Clouds
5:15 PM 32.0 °F 23.6 °F 19.4 °F 60% 30.22 in 10.0 mi North 10.4 mph - N/A   Scattered Clouds
5:35 PM 32.0 °F 22.5 °F 19.4 °F 60% 30.22 in 10.0 mi North 12.7 mph - N/A   Scattered Clouds
5:52 PM 32.0 °F 23.0 °F 19.4 °F 60% 30.22 in 10.0 mi North 11.5 mph - N/A   Clear
6:15 PM 32.0 °F 24.2 °F 19.4 °F 60% 30.21 in 10.0 mi NNW 9.2 mph - N/A   Clear
6:35 PM 30.2 °F 19.8 °F 21.2 °F 69% 30.21 in 10.0 mi NW 13.8 mph - N/A   Clear
6:53 PM 30.2 °F 21.3 °F 21.2 °F 69% 30.21 in 10.0 mi NW 10.4 mph - N/A   Scattered Clouds
7:15 PM 30.2 °F 21.3 °F 21.2 °F 69% 30.21 in 10.0 mi NW 10.4 mph - N/A   Scattered Clouds
7:35 PM 30.2 °F 20.2 °F 21.2 °F 69% 30.22 in 10.0 mi North 12.7 mph 16.1 mph N/A   Scattered Clouds
7:52 PM 30.2 °F 21.9 °F 21.2 °F 69% 30.22 in 10.0 mi NNW 9.2 mph - N/A   Mostly Cloudy
8:15 PM 30.2 °F 21.3 °F 21.2 °F 69% 30.22 in 10.0 mi NNW 10.4 mph - N/A   Overcast
8:35 PM 28.4 °F 19.7 °F 21.2 °F 74% 30.23 in 10.0 mi NNW 9.2 mph - N/A   Overcast
8:53 PM 28.4 °F 19.1 °F 21.2 °F 74% 30.23 in 10.0 mi NNW 10.4 mph - N/A   Overcast
9:15 PM 28.4 °F 20.4 °F 21.2 °F 74% 30.23 in 10.0 mi NW 8.1 mph - N/A   Overcast
9:35 PM 26.6 °F 17.5 °F 21.2 °F 80% 30.24 in 10.0 mi NW 9.2 mph - N/A   Overcast
9:52 PM 26.6 °F 16.8 °F 21.2 °F 80% 30.24 in 10.0 mi NW 10.4 mph - N/A   Overcast
10:15 PM 26.6 °F 16.8 °F 21.2 °F 80% 30.25 in 10.0 mi NW 10.4 mph - N/A   Overcast
10:35 PM 26.6 °F 16.2 °F 21.2 °F 80% 30.24 in 10.0 mi NW 11.5 mph - N/A   Scattered Clouds
10:52 PM 26.6 °F 16.2 °F 21.2 °F 80% 30.24 in 10.0 mi NW 11.5 mph - N/A   Clear
11:15 PM 24.8 °F 15.3 °F 19.4 °F 80% 30.23 in 10.0 mi NW 9.2 mph - N/A   Clear
11:35 PM 24.8 °F 15.3 °F 19.4 °F 80% 30.24 in 10.0 mi NW 9.2 mph - N/A   Clear
11:52 PM 24.8 °F 15.3 °F 19.4 °F 80% 30.23 in 10.0 mi NW 9.2 mph - N/A   Clear